Regional Weather Roundup
Issued by NWS Newport/Morehead, NC

Current Version | Previous Version | Text Only | Print | Product List | Glossary On
Versions: 1 2 3 4 5 6 7 8 9 10 11 12 13 14 15 16 17 18 19 20 21 22 23 24 25 26 27 28 29 30 31 32 33 34 35 36 37 38 39 40 41 42 43 44 45 46 47 48 49 50
000
ASUS42 KMHX 272113
RWRMHX
WEATHER ROUNDUP FOR EASTERN NORTH CAROLINA
NATIONAL WEATHER SERVICE NEWPORT/MOREHEAD CITY NC
500 PM EDT MON JUL 27 2015

NOTE: "FAIR" INDICATES FEW OR NO CLOUDS BELOW 12,000 FEET
WITH NO SIGNIFICANT WEATHER AND/OR OBSTRUCTIONS TO VISIBILITY

NCZ015>017-031-032-045>047-102-103-272200-
NORTH COAST

CITY           SKY/WX    TMP DP  RH WIND       PRES   REMARKS
EDENTON          N/A     84  71  65 SE6       29.98F
ELIZABETH CITY PTSUNNY   83  69  62 SE10      29.99S
KITTY HAWK     MOCLDY    85  69  58 S7        29.99S
MANTEO         PTSUNNY   81  70  68 S7        30.01S

$$

NCZ045>047-081-094-103-104-272200-
CENTRAL COAST

CITY           SKY/WX    TMP DP  RH WIND       PRES   REMARKS
FRISCO         CLOUDY    83  70  64 S5        30.00F
SWANQUARTER      N/A     84 N/A N/A SE7       29.97S

$$

NCZ095-097-098-100-101-272200-
SOUTHERN COAST

CITY           SKY/WX    TMP DP  RH WIND       PRES   REMARKS
BEAUFORT       SUNNY     84  72  67 SE10      29.99S
CEDAR ISLAND     N/A     84 N/A N/A E9        30.03S
JACKSONVILLE   MOSUNNY   87  70  56 SE12      29.97F
PINEY ISLAND   PTCLDY   N/A N/A N/A E10       29.99F
WILMINGTON     MOSUNNY   86  71  60 E12       29.98S


$$

NCZ011>013-027>030-043-044-078>080-089-090>093-098-272200-
COASTAL PLAIN

CITY           SKY/WX    TMP DP  RH WIND       PRES   REMARKS
AHOSKIE        PTSUNNY   84  69  61 E3        29.97F
CLINTON        MOSUNNY   89  73  58 E5        29.96S
ELIZABETHTOWN  MOSUNNY   86  75  70 S5        29.96F
GOLDSBORO      PTSUNNY   90  70  51 SE10      29.94F
GREENVILLE     PTSUNNY   88  70  55 SE7       29.99S
HAVELOCK       MOSUNNY   86  70  58 SE9       29.99S
KENANSVILLE    MOSUNNY   87  69  55 E5        29.97F
KINSTON        NOT AVBL
NEW BERN       PTSUNNY   86  69  56 SE9       29.99F
RICHLANDS      MOSUNNY   90  70  51 E14       29.97S
ROCKY MOUNT    PTSUNNY   90  70  51 VRB6      29.97F
WASHINGTON     PTSUNNY   84  70  62 E7        29.98F
WHITEVILLE     PTSUNNY   88  74  63 E13G21    29.95F

$$

AMZ130-135-150-152-154-156-158-170-250-252-270-ANZ085-086-088-633-658-670-272200-
MARINE OBSERVATIONS

STATION/POSITION TIME  TEMP    WIND        PRES    WAVE   SWELL
                       AIR SEA DIR/SP/G            HT/PER HT/PER
                 (UTC) (F)     (DEG/KT/KT) (MB)    (FT/S) (FT/S)
CHESAPEAKE LIGHT 2100   80     150/ 15/ 16 1016.2
64 E VA BEACH    2050   80 81  130/  6/  8 1016.1    2/11   2/11
DUCK             2000   82 81  140/ 10/ 12 1015.1
2 E DUCK         2011      81                N/A     2/12   2/12
OREGON INLET     2000   83 84  170/  6/  9 1016.0
13E OREGON INLT  2100      80                N/A     2/11   2/11
HATTERAS CG      2000   82 82  150/  4/  6 1015.8
DIAMOND BUOY     NOT AVBL
CAPE LOOKOUT     2100   82     110/ 10/ 11 1015.2
BEAUFORT LAB     2000   82 81  130/ 11/ 13 1015.0
30 SE NEW RVR IN NOT AVBL
27 SE WRIGHTSVLE 2000      82   90/ 12/ 16   N/A
5 SE WRIGHTSVLE  2008   82 81  110/ 12/ 16 1015.0
225 S CAPE HAT   2050   78 82  240/  6/ 10 1015.9    5/ 6   5/ 6
41 SE CHARLESTON 2050   84 85   70/ 12/ 14 1012.8    2/11   2/11

$$


USA.gov is the U.S. government's official web portal to all federal, state and local government web resources and services.